Orbital Elements at Epoch 2459200.5 (2020-Dec-17.0) TDB
Reference: JPL 23 (heliocentric ecliptic J2000)
Element | Value | Uncertainty (1-sigma) | Units |
e | .2014571850670571 | 6.2161e-08 | |
a | 2.629128774478878 | 2.179e-08 | au |
q | 2.099471892393561 | 1.6769e-07 | au |
i | 15.01947748768385 | 7.2643e-06 | deg |
node | 177.4382289099422 | 1.8536e-05 | deg |
peri | 188.0465182401277 | 2.2864e-05 | deg |
M | 235.0256251223503 | 1.8483e-05 | deg |
tp | 2459741.048525078250 (2022-Jun-10.54852508) | 8.5099e-05 | TDB |
period | 1557.098959036055 4.26 | 1.9358e-05 5.3e-08 | d yr |
n | .2311991783893191 | 2.8742e-09 | deg/d |
Q | 3.158785656564194 | 2.618e-08 | au |
|
| | Orbit Determination Parameters
Additional Information
|